Showing default

LKW-3, 43146

Orbit data source: Space-Track

LKW-3, 43146 is a Chinese payload satellite in SSO that was launched on Sat, 13 Jan 2018 UTC via a CHANG ZHENG 2D launch vehicle from the Jiuquan Satellite Launch Center, China (JSC). Payloads include a variety of satellites, spacecraft, and rockets equipped with specific instruments for various scientific and technological missions. These include communications satellites like Starlink; space stations such as the ISS; scientific satellites like the Hubble; Earth observation satellites from companies like Planet Labs, Umbra, and HawkEye 360; GPS; miniature CubeSats for education and research; and military/defense satellites.

Loading next visibility...
LKW-3 details
Identifier
43146, 2018-006A
Orbit
SSO
Last TLE update6 hours ago
Origin
Flag of CNZLZB/GCDX? (CN / PRC)
ManufacturerCAST?
MissionOperational Defense Imaging
Bus & MotorLKW, Unknown motor
Mass~2,000 kg wet, ~2,000 kg dry
Launch date (UTC)
2018-01-13 (7 years ago)
Launch vehicle
CHANG ZHENG 2D
Launch site
Jiuquan Satellite Launch Center, China (JSC)
Object type
Payload
Rocket body
Debris
Shape & HBRHex Cyl + 3 Pan, 10 m
Radar Cross Section8.135 m², Large (>1 m²)

Expand to show TLE details & history

TLE from 6 hours ago
0 LKW-3
1 43146U 18006A   24361.57383314  .00017189  00000-0  73367-3 0  9998
2 43146  97.5932 137.9746 0003412 198.2939 161.8175 15.22964998386587
Epoch: 2024-12-26T13:46Z
Definitive object data (Epoch: 2024-12-26T13:46:19.183Z)
Latitude-0.00001°
Longitude-164.15661°
Altitude502.221 km
Speed7.612 km/s
True Right ascension09h 11m 53s
True Declination0° 00' 00"
Sunlit
Object was in full shadow at TLE epoch
Visualization TLE readout
Latitude-77.807°
Longitude-21.75589°
Altitude523.578 km
Speed7.601 km/s
Apparent Right ascension07h 09m 35s
Apparent Declination-72° 18' 13"
Sunlit
Object is in daylight
Visualization observer readout
Local Sidereal Time19:01:13
Azimuth181.186° SSW
Elevation-57.596°
Doppler factor1
Orbital elements
Apogee altitude496.218 km
Perigee altitude491.528 km
Semi-major axis6,872.01 km
Eccentricity0.0003412
Inclination97.5932°
RAAN137.9746°
Arg. of periapsis198.2939°
True anomaly161.8297°
Mean anomaly161.8175°
Eccentric anomaly161.8236°
Mean motion3.80993 °/min
BSTAR0.00073367
Orbital period94.49 mins
Loading maneuver chart data...
Loading historical data...
Loading historical data...
Loading historical data...
Loading historical data...
Loading historical data...
Loading historical data...
Loading historical data...

LKW-3 Visibility forecast

Observer location: undefined°, undefined

Span
Click to sort rows by Start time (UTC) header in descending order
Start Az.
Max El. time (UTC)
Max El. Az.
Max El.
End time (UTC)
End Az.
7 mins2024-12-26 22:12:32.023Z11.921° NNE2024-12-26 22:16:32.023Z194.696° SSW42.448°2024-12-26 22:19:32.023Z193.531° SSW
5 mins2024-12-27 08:50:32.023Z125.894° SE2024-12-27 08:52:32.023Z76.939° E28.335°2024-12-27 08:55:32.023Z10.741° NNE
|